Wind_Speed
38 40 41 42 43 43 44 45 46 45 46 46 46 47 48 48 48 48 48 48 49 50 51 52 53 53 53 54 55 56 57 57 58 59 59 59 59 58 59 60 61 61 60
40 41 41 42 43 44 44 45 45 45 46 47 47 48 48 49 49 49 50 49 50 51 52 52 53 53 53 54 55 55 56 56 55 55 55 55 55 55 55 56 55 55 54
40 40 41 41 42 43 44 44 45 46 46 47 47 48 48 49 50 50 50 50 51 51 52 52 52 52 52 52 52 52 53 52 51 50 49 50 49 49 48 48 49 49 48
37 38 39 40 41 42 43 44 44 45 45 45 46 46 47 48 49 49 50 50 50 50 50 50 49 49 50 49 49 48 48 47 46 46 45 44 44 43 43 43 43 43 42
37 38 38 39 40 41 41 42 43 43 44 44 44 45 46 46 47 48 48 48 48 48 47 47 48 47 47 46 45 44 44 43 42 41 40 40 39 38 37 37 36 36 37
36 36 37 38 38 38 39 39 39 40 40 41 42 43 43 44 44 45 45 45 45 45 46 46 45 44 43 42 41 40 39 37 36 35 34 33 32 32 31 31 31 31 30
33 33 34 34 34 35 35 35 36 37 38 39 40 40 41 42 42 43 43 42 42 42 42 41 39 37 36 34 33 32 32 31 30 30 29 28 27 26 26 26 27 27 27
29 29 29 29 30 31 32 32 33 34 35 36 37 38 38 38 39 38 37 37 36 35 34 32 30 29 28 28 27 26 26 25 24 23 22 22 21 22 22 22 22 22 22
26 26 26 27 27 28 29 30 30 31 31 32 33 33 34 34 34 33 33 31 30 28 26 25 23 22 21 21 20 19 19 18 17 17 17 17 17 18 18 18 18 19 19
23 24 24 25 25 26 26 27 27 27 28 29 29 30 29 29 28 27 25 24 23 21 20 18 16 16 15 15 14 14 13 13 13 12 13 13 14 16 16 16 17 17 18
22 22 23 23 23 23 24 24 24 24 24 25 25 25 24 23 23 21 20 19 18 16 15 14 13 13 13 13 12 11 11 11 10 11 11 12 14 14 15 15 16 17 17
20 20 20 21 21 21 21 20 20 20 21 21 21 20 19 19 18 17 16 16 14 13 12 12 12 12 12 13 13 12 11 11 10 10 11 11 12 13 14 15 16 16 16
18 18 19 19 18 18 18 17 17 17 17 18 17 17 16 16 15 14 14 12 11 11 11 11 12 12 13 13 13 13 12 11 10 10 10 10 12 13 14 14 15 14 15
17 17 17 17 16 16 15 15 15 15 15 15 14 13 13 12 11 11 11 10 10 10 10 11 11 12 13 13 13 13 13 12 11 10 10 10 11 12 13 13 13 13 14
15 16 15 15 14 14 13 13 12 13 13 12 12 11 11 10 10 9 9 9 9 10 10 10 11 11 12 12 12 12 12 11 11 11 11 11 11 12 13 13 12 12 13
13 13 13 13 12 12 11 10 10 10 10 10 10 10 9 9 9 9 9 9 9 9 9 10 10 11 11 11 11 11 11 11 11 10 11 11 11 11 11 11 11 11 12
11 11 11 11 10 9 9 8 8 8 8 8 8 8 8 8 9 9 9 9 9 9 10 10 11 11 12 11 11 11 11 11 11 10 10 11 11 10 10 10 10 10 11
9 9 8 8 7 7 7 6 6 6 6 6 7 7 8 8 9 9 9 9 9 10 11 11 11 12 12 12 12 12 12 11 11 10 10 10 10 9 9 9 9 10 11
8 7 6 6 6 5 5 5 5 5 5 6 6 7 7 8 8 9 9 10 10 11 11 11 12 12 12 12 12 12 12 11 11 10 10 10 9 9 9 8 8 9 10
7 6 6 6 6 6 5 5 5 5 5 6 6 7 7 8 8 9 10 10 11 11 12 12 12 12 12 12 12 12 12 12 11 10 10 9 9 9 8 8 8 8 9
6 6 6 6 6 6 6 5 5 5 6 6 6 7 7 8 9 10 10 11 11 12 12 12 12 12 13 12 12 12 12 12 11 11 10 10 9 8 8 7 8 8 9
6 6 6 7 7 7 6 6 6 6 6 6 7 7 8 8 9 10 11 11 11 12 12 12 12 13 13 13 13 13 12 12 12 11 11 10 9 9 8 7 8 8 8
7 7 7 7 7 7 7 7 7 7 7 7 7 8 8 9 10 11 11 11 12 12 12 12 13 13 13 13 13 13 12 12 12 11 11 10 9 9 8 8 8 8 8
9 8 8 8 7 7 7 7 7 7 7 8 8 8 9 10 10 11 11 11 12 12 12 12 13 13 13 13 13 13 12 12 12 11 11 10 10 9 9 8 8 9 9
10 9 9 9 8 8 7 7 7 7 8 8 9 9 10 10 11 11 11 12 12 12 12 13 13 13 14 13 13 13 12 12 12 11 11 11 10 10 9 9 9 9 9
11 11 10 9 9 9 8 8 8 8 9 9 10 10 11 11 11 12 12 12 13 13 13 13 13 13 13 13 13 13 13 12 12 12 11 11 11 11 10 10 10 10 11
Wind_Direction
275 276 277 279 281 282 284 286 287 289 290 290 290 289 288 287 286 285 285 286 286 286 285 283 281 281 278 276 277 277 278 278 277 277 279 279 280 280 281 281 282 282 282
275 276 277 279 280 282 283 285 287 287 288 288 288 288 288 287 286 287 287 287 287 287 286 283 282 281 281 281 280 280 280 280 280 281 282 283 284 283 283 283 283 283 284
275 276 277 278 280 281 282 284 285 285 286 287 287 287 288 288 288 289 289 289 289 289 287 286 285 285 285 285 284 284 284 284 285 286 287 287 286 286 286 285 285 285 287
276 277 278 279 280 281 283 284 285 286 287 288 289 289 289 290 290 291 291 292 292 292 291 290 289 289 289 288 288 287 287 287 287 288 287 288 288 288 290 290 289 289 290
276 277 278 280 281 282 283 284 286 287 288 289 291 292 292 293 294 294 295 295 294 293 293 292 292 291 290 290 289 289 289 289 289 289 289 290 291 291 292 292 292 293 293
277 279 280 281 283 283 285 287 288 290 291 293 294 296 296 297 298 298 298 297 296 295 295 294 293 292 291 290 290 290 290 290 291 292 292 293 293 294 296 297 297 297 297
279 280 282 283 284 286 288 289 292 294 296 296 298 299 300 300 300 300 300 299 299 299 298 297 296 295 293 292 292 292 291 291 291 293 294 295 296 298 300 302 303 302 302
282 284 285 286 288 289 291 294 296 297 298 300 301 302 303 303 303 303 303 303 304 304 303 302 302 300 299 297 295 295 294 295 296 297 299 301 303 304 307 309 310 311 313
286 287 289 290 291 293 295 297 299 300 301 303 304 305 305 306 305 306 306 307 308 309 309 308 307 307 307 306 304 303 303 303 304 306 309 312 314 317 318 319 319 320 321
290 292 293 294 295 296 298 300 302 303 304 306 307 308 310 310 311 312 313 314 315 316 317 318 318 319 319 320 320 320 321 320 318 318 323 327 328 328 329 329 330 330 330
292 294 295 296 297 298 300 302 304 305 307 310 312 314 316 317 320 322 323 325 327 329 331 333 336 338 339 340 340 340 341 340 340 338 337 336 336 335 335 335 336 337 339
293 295 297 298 299 301 303 304 306 308 312 315 317 320 323 325 327 329 331 332 337 344 349 353 356 359 2 2 359 357 355 352 350 347 346 343 342 342 342 342 342 343 345
295 297 298 299 300 302 303 305 308 311 315 319 322 324 327 330 333 335 339 345 355 2 6 10 13 15 13 10 7 6 5 2 1 357 353 350 348 346 345 345 346 348 350
296 297 298 298 300 302 304 307 309 312 317 322 325 328 331 336 341 345 350 356 2 7 9 10 11 12 10 8 5 4 3 2 0 356 353 348 345 345 345 348 350 352 353
298 298 299 300 302 303 304 307 311 315 319 325 333 337 340 345 352 357 2 5 7 8 9 8 9 8 4 1 0 359 357 355 353 351 349 348 346 346 347 348 349 351 354
303 303 302 302 303 303 305 308 313 319 325 332 339 345 349 354 357 360 3 7 9 9 8 6 5 1 359 357 354 352 351 351 349 346 344 345 344 344 346 349 352 355 358
311 310 308 308 307 308 309 312 318 325 333 339 345 351 355 356 357 359 1 3 6 5 3 1 0 358 355 353 350 348 347 347 347 347 344 344 345 345 347 351 356 359 2
324 324 322 322 318 316 317 320 325 333 340 343 348 353 355 355 356 358 360 2 1 360 359 357 356 355 354 353 352 351 351 351 350 349 348 348 349 350 351 353 357 0 4
341 344 346 347 345 341 339 337 338 344 349 350 352 355 356 357 357 358 359 359 358 358 358 357 356 356 355 356 356 355 355 355 356 356 355 356 357 357 357 357 -0 3 8
360 4 5 7 8 6 4 1 360 358 356 356 356 356 357 358 359 359 359 358 358 358 358 358 358 358 358 358 358 358 359 359 359 359 358 358 360 1 2 4 6 6 8
12 17 17 18 20 18 16 14 11 5 3 3 0 359 360 0 360 359 358 358 358 358 358 360 0 1 1 0 1 1 2 3 4 4 3 2 3 4 4 6 8 11 13
21 27 26 25 22 19 19 17 13 10 9 7 5 3 2 1 359 359 360 0 -0 0 3 4 5 5 4 5 5 5 6 7 7 7 8 9 10 11 12 13 15 17 19
27 27 25 22 18 16 16 16 15 13 11 9 8 5 4 4 3 3 3 4 5 6 6 6 7 7 8 8 8 8 9 10 10 10 12 14 16 17 17 20 23 24 24
28 26 23 20 16 15 16 16 16 15 13 11 10 10 10 10 8 8 9 9 9 9 9 10 10 10 10 10 11 11 12 13 14 16 19 21 22 23 23 25 27 28 28
29 27 25 22 20 20 21 21 20 18 17 17 17 15 14 13 13 14 15 14 13 14 14 14 13 13 13 14 14 14 16 18 20 22 26 29 30 31 32 33 34 35 35
29 29 28 28 29 30 30 29 27 26 24 22 22 21 20 20 20 20 20 19 18 18 17 18 18 18 19 19 20 21 24 26 28 30 34 37 38 40 42 43 44 46 46
Height
5792 5791 5790 5789 5787 5786 5784 5782 5780 5778 5776 5774 5771 5769 5767 5765 5762 5760 5757 5754 5751 5748 5745 5742 5739 5736 5732 5728 5725 5721 5717 5713 5710 5705 5701 5697 5693 5690 5686 5682 5679 5675 5672
5783 5782 5781 5779 5778 5776 5774 5772 5770 5768 5766 5764 5761 5759 5756 5753 5750 5747 5744 5741 5738 5735 5731 5728 5724 5721 5717 5713 5709 5705 5701 5697 5693 5689 5685 5681 5678 5674 5671 5667 5664 5660 5657
5773 5772 5771 5769 5768 5766 5764 5762 5760 5758 5755 5753 5750 5747 5745 5742 5738 5735 5732 5728 5724 5721 5717 5713 5709 5706 5702 5698 5694 5690 5686 5682 5678 5675 5671 5667 5663 5660 5657 5654 5650 5647 5643
5763 5762 5761 5759 5758 5756 5754 5752 5750 5748 5745 5742 5739 5736 5733 5730 5727 5723 5719 5715 5711 5707 5703 5699 5695 5691 5687 5683 5680 5676 5672 5668 5665 5661 5658 5654 5651 5647 5644 5641 5638 5635 5631
5754 5753 5751 5750 5748 5746 5744 5742 5740 5737 5735 5732 5729 5726 5722 5718 5714 5710 5706 5702 5698 5693 5689 5685 5681 5677 5673 5669 5666 5662 5659 5655 5652 5649 5646 5643 5640 5637 5634 5631 5628 5625 5621
5744 5743 5742 5740 5738 5737 5735 5733 5730 5728 5725 5722 5719 5715 5711 5707 5703 5699 5694 5690 5685 5681 5676 5672 5668 5664 5660 5656 5653 5649 5647 5644 5641 5638 5635 5633 5630 5628 5625 5622 5619 5616 5613
5735 5734 5733 5731 5730 5728 5726 5724 5722 5719 5716 5713 5709 5705 5701 5697 5692 5688 5683 5678 5674 5669 5664 5659 5655 5652 5648 5645 5642 5639 5636 5633 5631 5629 5627 5625 5623 5620 5618 5615 5612 5609 5606
5727 5726 5725 5723 5722 5720 5718 5716 5713 5710 5707 5704 5700 5696 5691 5687 5682 5678 5673 5668 5663 5658 5653 5649 5645 5642 5639 5636 5633 5631 5628 5626 5624 5622 5620 5619 5616 5614 5612 5609 5606 5604 5600
5720 5719 5718 5716 5714 5713 5711 5708 5706 5703 5699 5696 5692 5688 5683 5678 5674 5669 5664 5659 5655 5650 5646 5642 5639 5636 5632 5629 5626 5624 5622 5620 5619 5617 5616 5614 5612 5610 5608 5605 5603 5600 5597
5714 5712 5711 5709 5708 5706 5704 5701 5699 5696 5692 5689 5685 5680 5676 5671 5666 5662 5657 5653 5649 5645 5641 5637 5635 5632 5629 5625 5623 5620 5618 5617 5616 5614 5613 5611 5609 5607 5605 5602 5600 5597 5594
5708 5706 5705 5703 5701 5699 5697 5695 5692 5689 5686 5683 5679 5674 5670 5666 5661 5657 5653 5649 5645 5642 5638 5635 5632 5629 5627 5624 5621 5619 5617 5615 5614 5613 5611 5610 5608 5606 5603 5600 5597 5594 5591
5702 5701 5699 5697 5695 5694 5692 5689 5687 5684 5681 5678 5674 5670 5666 5662 5658 5654 5651 5647 5644 5640 5637 5634 5632 5629 5626 5623 5621 5619 5617 5615 5613 5612 5610 5609 5607 5605 5602 5599 5596 5593 5589
5697 5695 5694 5692 5690 5688 5687 5685 5682 5680 5677 5674 5671 5667 5663 5660 5656 5652 5649 5646 5643 5640 5638 5635 5632 5630 5627 5624 5622 5619 5617 5615 5613 5612 5610 5608 5606 5603 5601 5598 5595 5592 5589
5692 5690 5688 5687 5685 5684 5682 5680 5678 5676 5674 5671 5668 5665 5662 5658 5655 5652 5649 5646 5644 5641 5638 5636 5633 5630 5628 5625 5623 5620 5618 5615 5613 5611 5609 5607 5605 5602 5600 5597 5594 5591 5588
5687 5685 5684 5682 5681 5680 5678 5676 5675 5673 5671 5668 5666 5663 5660 5657 5655 5652 5649 5647 5644 5642 5639 5637 5634 5632 5629 5626 5624 5621 5618 5616 5613 5611 5609 5607 5604 5602 5599 5596 5593 5591 5588
5682 5681 5679 5678 5677 5676 5674 5673 5671 5670 5668 5666 5664 5662 5659 5657 5655 5652 5650 5648 5645 5642 5640 5637 5635 5632 5629 5627 5624 5621 5618 5616 5613 5611 5608 5606 5604 5601 5599 5596 5593 5591 5588
5679 5677 5676 5674 5673 5672 5671 5670 5669 5668 5666 5665 5663 5661 5659 5657 5655 5653 5650 5648 5646 5643 5641 5638 5635 5632 5630 5627 5624 5621 5618 5615 5613 5610 5608 5605 5603 5601 5598 5596 5593 5591 5588
5676 5675 5673 5672 5671 5670 5669 5668 5668 5667 5665 5664 5663 5661 5659 5657 5655 5653 5651 5648 5646 5644 5641 5638 5636 5633 5630 5627 5624 5621 5618 5615 5612 5610 5607 5605 5603 5600 5598 5596 5594 5591 5589
5675 5674 5672 5671 5670 5668 5668 5667 5666 5666 5665 5664 5662 5661 5659 5657 5655 5653 5651 5649 5646 5644 5641 5639 5636 5633 5630 5627 5624 5621 5618 5615 5613 5610 5607 5605 5603 5600 5598 5596 5594 5592 5589
5675 5674 5672 5671 5670 5668 5668 5667 5666 5665 5664 5663 5662 5661 5659 5657 5656 5653 5651 5649 5647 5644 5642 5639 5636 5633 5630 5627 5624 5621 5618 5615 5613 5610 5607 5605 5603 5600 5598 5596 5594 5592 5590
5675 5674 5673 5672 5671 5669 5668 5668 5667 5666 5665 5663 5662 5661 5659 5657 5656 5654 5651 5649 5647 5644 5642 5639 5636 5634 5631 5628 5625 5622 5619 5616 5613 5610 5608 5605 5603 5601 5599 5597 5595 5593 5591
5676 5675 5674 5673 5672 5671 5669 5668 5667 5666 5665 5664 5662 5661 5659 5658 5656 5654 5652 5649 5647 5645 5642 5639 5637 5634 5631 5628 5625 5622 5619 5616 5613 5611 5608 5606 5604 5602 5600 5598 5596 5594 5592
5677 5676 5675 5674 5673 5672 5670 5669 5668 5667 5666 5664 5663 5662 5660 5658 5656 5654 5652 5650 5647 5645 5642 5640 5637 5634 5631 5628 5625 5622 5620 5617 5614 5611 5609 5606 5604 5603 5601 5599 5597 5595 5593
5679 5678 5676 5675 5674 5673 5672 5670 5669 5668 5667 5665 5664 5662 5661 5659 5657 5655 5653 5651 5648 5646 5643 5641 5638 5635 5632 5629 5626 5623 5620 5618 5615 5612 5610 5608 5606 5604 5602 5600 5598 5597 5595
5681 5679 5678 5676 5675 5674 5673 5671 5670 5669 5668 5666 5665 5663 5662 5660 5658 5656 5654 5651 5649 5647 5644 5641 5639 5636 5633 5630 5627 5624 5621 5619 5616 5614 5611 5609 5607 5605 5604 5602 5600 5598 5597
5683 5681 5679 5678 5677 5675 5674 5673 5672 5671 5669 5668 5666 5665 5663 5661 5659 5657 5655 5653 5650 5648 5645 5643 5640 5637 5634 5631 5629 5626 5623 5621 5618 5616 5614 5611 5610 5608 5606 5604 5602 5601 5599